This demonstration page uses our WeatherBlox Daily Observations layout. Learn more.

36.17497, -115.13722

Hourly Observations for July 21, 2015

Temp ( °F °C ) Dew Point ( °F °C ) Humidity (%) Winds ( mph kmh ) Pressure ( in mb ) Visibility ( mi km ) Precip ( " mm )
12:53 am 00:53 Clear 78 25.6 58 14.4 50 50 NW 6 9 29.95 1014 10 16.0934 0 0
1:53 am 01:53 Clear 76 24.4 59 15 56 56 NW 3 6 29.94 1014 10 16.0934 0 0
2:53 am 02:53 Clear 77 25 59 15 54 54 NW 3 6 29.94 1014 10 16.0934 0 0
3:53 am 03:53 Clear 75 23.9 58 14.4 55 55 NNW 5 7 29.94 1014 10 16.0934 0 0
4:53 am 04:53 Clear 74 23.3 58 14.4 57 57 N 6 9 29.94 1014 10 16.0934 0 0
5:53 am 05:53 Sunny 75 23.9 57 13.9 54 54 N 7 11 29.94 1014 10 16.0934 0 0
6:53 am 06:53 Sunny 76 24.4 57 13.9 52 52 NNW 5 7 29.95 1014 10 16.0934 0 0
7:53 am 07:53 Sunny 79 26.1 58 14.4 49 49 N 6 9 29.95 1014 10 16.0934 0 0
8:53 am 08:53 Sunny 81 27.2 58 14.4 45 45 Calm 29.94 1014 10 16.0934 0 0
9:53 am 09:53 Sunny 84 28.9 58 14.4 41 41 ESE 7 11 29.92 1013 10 16.0934 0 0
10:53 am 10:53 Sunny 87 30.6 57 13.9 36 36 Calm 29.91 1013 10 16.0934 0 0
11:53 am 11:53 Sunny 88 31.1 56 13.3 34 34 VRB 5 7 29.9 1013 10 16.0934 0 0
12:53 pm 12:53 Sunny 91 32.8 55 12.8 30 30 SSE 10 17 29.87 1012 10 16.0934 0 0
1:53 pm 13:53 Sunny 92 33.3 51 10.6 25 25 SSW 8 13 29.84 1011 10 16.0934 0 0
2:53 pm 14:53 Mostly Sunny 96 35.6 47 8.3 19 19 ESE 13 20 29.8 1009 10 16.0934 0 0
3:53 pm 15:53 Mostly Sunny 96 35.6 49 9.4 20 20 W 9 15 29.78 1008 10 16.0934 0 0
4:53 pm 16:53 Mostly Sunny 97 36.1 44 6.7 16 16 SW 12 19 29.75 1008 10 16.0934 0 0
5:53 pm 17:53 Sunny 97 36.1 46 7.8 17 17 WSW 13 20 29.73 1007 10 16.0934 0 0
6:53 pm 18:53 Sunny 96 35.6 45 7.2 17 17 SSW 6 9 29.72 1007 10 16.0934 0 0
7:53 pm 19:53 Sunny 94 34.4 42 5.6 17 17 W 10 17 29.72 1007 10 16.0934 0 0
8:53 pm 20:53 Clear 92 33.3 43 6.1 18 18 WNW 9 15 29.74 1007 10 16.0934 0 0
9:53 pm 21:53 Cloudy 91 32.8 43 6.1 19 19 W 6 9 29.76 1008 10 16.0934 0 0
10:53 pm 22:53 Mostly Clear 89 31.7 44 6.7 21 21 WNW 5 7 29.77 1008 10 16.0934 0 0
11:53 pm 23:53 Mostly Clear 88 31.1 44 6.7 22 22 SW 7 11 29.77 1008 10 16.0934 0 0

Powered by AerisWeather